Back to catalog

SENTINEL 1A

AliveScienceSSO
NORAD 39634·PAYLOAD·🇪🇺 EU

Launched Apr 3, 2014 from Guiana Space Centre

Loading…

Next Passes (next 24 hours)

TLE

FreshSource: Space-Track

Epoch: Sep 14, 2026, 13:34 UTC

1 39634U 14016A   26257.56545641 -.00000036  00000-0  21334-5 0  9993
2 39634  98.1587 263.7004 0001408  85.0608 275.0753 14.59804504663056

Track SENTINEL 1A in real time with AllMySat

Download on the App Store